Regional Weather Roundup
Issued by NWS Charleston, WV

Home | Current Version | Previous Version | Graphics & Text | Print | Product List | Glossary On
Versions: 1 2 3 4 5 6 7 8 9 10 11 12 13 14 15 16 17 18 19 20 21 22 23 24 25 26 27
000
ASUS41 KRLX 172210
RWRRLX
West Virginia Regional Weather Roundup
National Weather Service Charleston WV
600 PM EDT THU AUG 17 2017

Note: "fair" indicates few or no clouds below 12,000 feet with no
significant weather and/or obstructions to visibility.

WVZ003-172300-
Northern Panhandle of West Virginia

CITY           SKY/WX    TMP DP  RH WIND       PRES   REMARKS
WHEELING       CLOUDY    78  73  84 SE5       29.91S
$$

WVZ009-172300-
Northwest West Virginia

CITY           SKY/WX    TMP DP  RH WIND       PRES   REMARKS
PARKERSBURG    PTSUNNY   86  76  71 SW5       29.91S HX  96
$$

WVZ006-172300-
Western West Virginia

CITY           SKY/WX    TMP DP  RH WIND       PRES   REMARKS
HUNTINGTON     CLOUDY    89  73  59 SW9       29.90S HX  97
$$

WVZ015-172300-
West Central West Virginia

CITY           SKY/WX    TMP DP  RH WIND       PRES   REMARKS
CHARLESTON     PTSUNNY   85  72  65 SW8       29.93R
$$

WVZ022-031-172300-
North Central West Virginia

CITY           SKY/WX    TMP DP  RH WIND       PRES   REMARKS
CLARKSBURG     CLOUDY    85  71  63 SW5       29.94R
MORGANTOWN     TSTM      82  71  69 S5        29.94R
$$

WVZ025-035-042-045-172300-
Southern West Virginia

CITY           SKY/WX    TMP DP  RH WIND       PRES   REMARKS
BECKLEY        CLOUDY    84  70  62 VRB5      30.03S
LOGAN            N/A     82  75  78 CALM      29.97F
BLUEFIELD      SUNNY     81  66  60 W12       30.08R
LEWISBURG      SUNNY     84  67  57 SW10      30.03S
$$

WVZ047-172300-
Northern Mountains of West Virginia

CITY           SKY/WX    TMP DP  RH WIND       PRES   REMARKS
ELKINS         CLOUDY    83  68  60 W3        29.99S
$$

WVZ052-172300-
Eastern Panhandle of West Virginia

CITY           SKY/WX    TMP DP  RH WIND       PRES   REMARKS
MARTINSBURG    SUNNY     87  74  64 SE5       29.91S
PETERSBURG     PTSUNNY   90  77  66 CALM      29.92S HX 102
$$




USA.gov is the U.S. government's official web portal to all federal, state and local government web resources and services.